Location: Potomac Astrometric Observatory
(39.0475°N, 77.2064°W)
Time: 06:46:30
(UTC-04:00)

Envisat - Visible Passes

Search period start: 23 October 2019 00:00
Search period end: 02 November 2019 00:00
Orbit: 764 x 766 km, 98.1° (Epoch: 23 October)

Date Brightness Start Highest point End Pass type
(mag) Time Alt. Az. Time Alt. Az. Time Alt. Az.
23 Oct 4.7 19:58:55 10° SSW 20:03:29 33° W 20:08:05 10° NNW visible
24 Oct 3.2 19:21:33 10° S 19:26:37 78° WSW 19:31:43 10° NNW visible
25 Oct 3.3 18:45:06 10° SE 18:49:56 47° ENE 18:54:48 10° N visible
25 Oct 5.7 20:25:38 10° SW 20:29:11 19° W 20:32:44 10° NW visible
26 Oct 6.1 06:56:12 10° NE 06:59:34 18° E 07:02:56 10° SE visible
26 Oct 4.2 19:47:22 10° S 19:52:10 43° W 19:57:00 10° NNW visible
27 Oct 2.9 19:10:17 10° SSE 19:15:21 83° ENE 19:20:28 10° N visible
28 Oct 3.5 18:34:07 10° SE 18:38:44 37° ENE 18:43:22 10° N visible
28 Oct 5.3 20:13:45 10° SSW 20:17:49 24° W 20:21:54 10° NW visible
29 Oct 6.3 06:45:41 10° ENE 06:48:12 14° E 06:50:42 10° ESE visible
29 Oct 3.7 19:35:54 10° S 19:40:52 55° W 19:45:52 10° NNW visible
30 Oct 3.0 18:59:06 10° SSE 19:04:07 65° ENE 19:09:09 10° N visible
30 Oct 6.1 20:41:10 10° WSW 20:43:33 13° W 20:45:58 10° WNW visible
31 Oct 4.9 20:02:02 10° SSW 20:06:28 30° W 20:10:57 10° NW visible
01 Nov 6.7 06:36:08 10° E 06:36:48 10° E 06:37:28 10° E visible
01 Nov 3.3 19:24:32 10° S 19:29:34 71° WSW 19:34:40 10° NNW visible
